<?xml version="1.0" encoding="UTF-8" standalone="no" ?>
<gpx xmlns="http://www.topografix.com/GPX/1/1" xmlns:xsi="http://www.w3.org/2001/XMLSchema-instance" xsi:schemaLocation="http://www.topografix.com/GPX/1/1 http://www.topografix.com/GPX/1/1/gpx.xsd" version="1.1" creator="VisuGPX - https://www.visugpx.com">
  <metadata>
    <name>SER - La marre Asse</name>
    <desc><![CDATA[SER - La marre Asse]]></desc>
  </metadata>
  <trk>
    <name><![CDATA[Haute normandie foret du rouvray]]></name>
    <trkseg>
      <trkpt lat="49.2986" lon="1.02435">
        <ele>106.268</ele>
        <time>1998-03-25T14:44:06Z</time>
      </trkpt>
      <trkpt lat="49.2986" lon="1.02435">
        <ele>106.268</ele>
        <time>1998-03-25T14:44:06Z</time>
      </trkpt>
      <trkpt lat="49.29998" lon="1.02375">
        <ele>105.442</ele>
        <time>1998-03-25T14:44:39Z</time>
      </trkpt>
      <trkpt lat="49.30021" lon="1.02428">
        <ele>105.026</ele>
        <time>1998-03-25T14:44:51Z</time>
      </trkpt>
      <trkpt lat="49.30032" lon="1.02423">
        <ele>105.208</ele>
        <time>1998-03-25T14:44:55Z</time>
      </trkpt>
      <trkpt lat="49.31193" lon="1.01107">
        <ele>87.668</ele>
        <time>1998-03-25T14:52:06Z</time>
      </trkpt>
      <trkpt lat="49.31353" lon="1.01023">
        <ele>87.869</ele>
        <time>1998-03-25T14:52:41Z</time>
      </trkpt>
      <trkpt lat="49.31189" lon="1.00709">
        <ele>87.22</ele>
        <time>1998-03-25T14:53:33Z</time>
      </trkpt>
      <trkpt lat="49.31017" lon="1.00459">
        <ele>85.851</ele>
        <time>1998-03-25T14:54:16Z</time>
      </trkpt>
      <trkpt lat="49.30917" lon="1.00365">
        <ele>85.844</ele>
        <time>1998-03-25T14:54:36Z</time>
      </trkpt>
      <trkpt lat="49.30799" lon="1.00281">
        <ele>87.012</ele>
        <time>1998-03-25T14:55:03Z</time>
      </trkpt>
      <trkpt lat="49.31078" lon="0.99816">
        <ele>94.022</ele>
        <time>1998-03-25T14:56:39Z</time>
      </trkpt>
      <trkpt lat="49.31196" lon="0.99674">
        <ele>88.253</ele>
        <time>1998-03-25T14:57:08Z</time>
      </trkpt>
      <trkpt lat="49.31247" lon="0.99647">
        <ele>86.617</ele>
        <time>1998-03-25T14:57:23Z</time>
      </trkpt>
      <trkpt lat="49.31262" lon="0.99694">
        <ele>86.887</ele>
        <time>1998-03-25T14:57:32Z</time>
      </trkpt>
      <trkpt lat="49.31318" lon="0.99775">
        <ele>87.615</ele>
        <time>1998-03-25T14:57:53Z</time>
      </trkpt>
      <trkpt lat="49.31365" lon="0.99661">
        <ele>99.408</ele>
        <time>1998-03-25T14:58:34Z</time>
      </trkpt>
      <trkpt lat="49.31445" lon="0.99623">
        <ele>101.483</ele>
        <time>1998-03-25T14:59:05Z</time>
      </trkpt>
      <trkpt lat="49.31525" lon="0.9962">
        <ele>107.084</ele>
        <time>1998-03-25T14:59:39Z</time>
      </trkpt>
      <trkpt lat="49.31632" lon="0.99656">
        <ele>110.615</ele>
        <time>1998-03-25T15:00:23Z</time>
      </trkpt>
      <trkpt lat="49.31717" lon="0.99643">
        <ele>106.876</ele>
        <time>1998-03-25T15:00:51Z</time>
      </trkpt>
      <trkpt lat="49.31742" lon="0.99668">
        <ele>110.869</ele>
        <time>1998-03-25T15:01:16Z</time>
      </trkpt>
      <trkpt lat="49.31854" lon="0.99514">
        <ele>117.457</ele>
        <time>1998-03-25T15:02:45Z</time>
      </trkpt>
      <trkpt lat="49.31901" lon="0.99501">
        <ele>118.237</ele>
        <time>1998-03-25T15:03:07Z</time>
      </trkpt>
      <trkpt lat="49.32046" lon="0.99634">
        <ele>133.298</ele>
        <time>1998-03-25T15:05:24Z</time>
      </trkpt>
      <trkpt lat="49.32105" lon="0.99668">
        <ele>136.069</ele>
        <time>1998-03-25T15:06:07Z</time>
      </trkpt>
      <trkpt lat="49.32338" lon="1.00027">
        <ele>167.204</ele>
        <time>1998-03-25T15:12:26Z</time>
      </trkpt>
      <trkpt lat="49.3235" lon="1.00133">
        <ele>173.624</ele>
        <time>1998-03-25T15:13:05Z</time>
      </trkpt>
      <trkpt lat="49.32329" lon="1.00233">
        <ele>182.208</ele>
        <time>1998-03-25T15:14:26Z</time>
      </trkpt>
      <trkpt lat="49.32287" lon="1.00298">
        <ele>183.418</ele>
        <time>1998-03-25T15:15:00Z</time>
      </trkpt>
      <trkpt lat="49.32246" lon="1.00417">
        <ele>183.619</ele>
        <time>1998-03-25T15:15:31Z</time>
      </trkpt>
      <trkpt lat="49.32252" lon="1.0055">
        <ele>180.28</ele>
        <time>1998-03-25T15:15:54Z</time>
      </trkpt>
      <trkpt lat="49.32204" lon="1.00706">
        <ele>171.481</ele>
        <time>1998-03-25T15:16:19Z</time>
      </trkpt>
      <trkpt lat="49.32218" lon="1.00734">
        <ele>166.414</ele>
        <time>1998-03-25T15:16:27Z</time>
      </trkpt>
      <trkpt lat="49.32253" lon="1.00741">
        <ele>164.472</ele>
        <time>1998-03-25T15:16:37Z</time>
      </trkpt>
      <trkpt lat="49.32345" lon="1.00683">
        <ele>153.242</ele>
        <time>1998-03-25T15:16:53Z</time>
      </trkpt>
      <trkpt lat="49.32346" lon="1.00781">
        <ele>158.023</ele>
        <time>1998-03-25T15:17:28Z</time>
      </trkpt>
      <trkpt lat="49.32358" lon="1.0082">
        <ele>159.874</ele>
        <time>1998-03-25T15:17:43Z</time>
      </trkpt>
      <trkpt lat="49.3242" lon="1.00918">
        <ele>164.456</ele>
        <time>1998-03-25T15:18:28Z</time>
      </trkpt>
      <trkpt lat="49.32512" lon="1.01022">
        <ele>171.221</ele>
        <time>1998-03-25T15:19:26Z</time>
      </trkpt>
      <trkpt lat="49.32522" lon="1.01109">
        <ele>175.208</ele>
        <time>1998-03-25T15:20:02Z</time>
      </trkpt>
      <trkpt lat="49.3249" lon="1.01301">
        <ele>184.059</ele>
        <time>1998-03-25T15:21:18Z</time>
      </trkpt>
      <trkpt lat="49.32543" lon="1.0158">
        <ele>196.06</ele>
        <time>1998-03-25T15:23:07Z</time>
      </trkpt>
      <trkpt lat="49.32622" lon="1.01579">
        <ele>201.041</ele>
        <time>1998-03-25T15:23:53Z</time>
      </trkpt>
      <trkpt lat="49.32672" lon="1.01593">
        <ele>201.822</ele>
        <time>1998-03-25T15:24:12Z</time>
      </trkpt>
      <trkpt lat="49.32776" lon="1.01684">
        <ele>204.075</ele>
        <time>1998-03-25T15:24:52Z</time>
      </trkpt>
      <trkpt lat="49.32885" lon="1.01732">
        <ele>205.223</ele>
        <time>1998-03-25T15:25:28Z</time>
      </trkpt>
      <trkpt lat="49.32964" lon="1.01929">
        <ele>206.093</ele>
        <time>1998-03-25T15:26:05Z</time>
      </trkpt>
      <trkpt lat="49.33017" lon="1.01902">
        <ele>206.294</ele>
        <time>1998-03-25T15:26:17Z</time>
      </trkpt>
      <trkpt lat="49.33144" lon="1.01921">
        <ele>206.848</ele>
        <time>1998-03-25T15:26:42Z</time>
      </trkpt>
      <trkpt lat="49.3321" lon="1.01962">
        <ele>205.661</ele>
        <time>1998-03-25T15:26:55Z</time>
      </trkpt>
      <trkpt lat="49.33271" lon="1.01951">
        <ele>206.017</ele>
        <time>1998-03-25T15:27:07Z</time>
      </trkpt>
      <trkpt lat="49.33305" lon="1.01964">
        <ele>205.808</ele>
        <time>1998-03-25T15:27:14Z</time>
      </trkpt>
      <trkpt lat="49.33844" lon="1.03005">
        <ele>196.056</ele>
        <time>1998-03-25T15:30:38Z</time>
      </trkpt>
      <trkpt lat="49.33856" lon="1.03068">
        <ele>198.487</ele>
        <time>1998-03-25T15:30:52Z</time>
      </trkpt>
      <trkpt lat="49.3381" lon="1.0322">
        <ele>197.498</ele>
        <time>1998-03-25T15:31:17Z</time>
      </trkpt>
      <trkpt lat="49.33821" lon="1.03329">
        <ele>198.299</ele>
        <time>1998-03-25T15:31:34Z</time>
      </trkpt>
      <trkpt lat="49.3469" lon="1.03715">
        <ele>198.642</ele>
        <time>1998-03-25T15:35:00Z</time>
      </trkpt>
      <trkpt lat="49.34713" lon="1.03701">
        <ele>198.45</ele>
        <time>1998-03-25T15:35:04Z</time>
      </trkpt>
      <trkpt lat="49.34826" lon="1.03533">
        <ele>201.83</ele>
        <time>1998-03-25T15:35:35Z</time>
      </trkpt>
      <trkpt lat="49.3498" lon="1.03117">
        <ele>201.851</ele>
        <time>1998-03-25T15:36:42Z</time>
      </trkpt>
      <trkpt lat="49.34925" lon="1.03364">
        <ele>203.855</ele>
        <time>1998-03-25T15:37:17Z</time>
      </trkpt>
      <trkpt lat="49.34895" lon="1.03884">
        <ele>199.207</ele>
        <time>1998-03-25T15:38:21Z</time>
      </trkpt>
      <trkpt lat="49.3481" lon="1.04421">
        <ele>191.817</ele>
        <time>1998-03-25T15:39:22Z</time>
      </trkpt>
      <trkpt lat="49.37476" lon="1.06344">
        <ele>152.008</ele>
        <time>1998-03-25T15:47:10Z</time>
      </trkpt>
      <trkpt lat="49.37529" lon="1.06352">
        <ele>150.817</ele>
        <time>1998-03-25T15:47:20Z</time>
      </trkpt>
      <trkpt lat="49.38814" lon="1.05964">
        <ele>146.048</ele>
        <time>1998-03-25T15:51:21Z</time>
      </trkpt>
      <trkpt lat="49.38835" lon="1.06041">
        <ele>146.849</ele>
        <time>1998-03-25T15:56:08Z</time>
      </trkpt>
      <trkpt lat="49.38566" lon="1.06946">
        <ele>144.69</ele>
        <time>1998-03-25T15:59:44Z</time>
      </trkpt>
      <trkpt lat="49.38533" lon="1.07036">
        <ele>144.853</ele>
        <time>1998-03-25T16:00:49Z</time>
      </trkpt>
      <trkpt lat="49.38501" lon="1.07067">
        <ele>143.641</ele>
        <time>1998-03-25T16:01:01Z</time>
      </trkpt>
      <trkpt lat="49.3852" lon="1.07145">
        <ele>142.651</ele>
        <time>1998-03-25T16:01:13Z</time>
      </trkpt>
      <trkpt lat="49.38521" lon="1.07447">
        <ele>137.482</ele>
        <time>1998-03-25T16:01:49Z</time>
      </trkpt>
      <trkpt lat="49.38393" lon="1.07853">
        <ele>128.873</ele>
        <time>1998-03-25T16:02:47Z</time>
      </trkpt>
      <trkpt lat="49.38368" lon="1.07864">
        <ele>128.485</ele>
        <time>1998-03-25T16:02:53Z</time>
      </trkpt>
      <trkpt lat="49.38328" lon="1.07838">
        <ele>129.613</ele>
        <time>1998-03-25T16:03:05Z</time>
      </trkpt>
      <trkpt lat="49.38327" lon="1.07863">
        <ele>130.408</ele>
        <time>1998-03-25T16:03:20Z</time>
      </trkpt>
      <trkpt lat="49.38253" lon="1.07794">
        <ele>132.239</ele>
        <time>1998-03-25T16:04:42Z</time>
      </trkpt>
      <trkpt lat="49.38193" lon="1.07607">
        <ele>135.69</ele>
        <time>1998-03-25T16:05:18Z</time>
      </trkpt>
      <trkpt lat="49.38156" lon="1.07544">
        <ele>136.841</ele>
        <time>1998-03-25T16:05:32Z</time>
      </trkpt>
      <trkpt lat="49.3794" lon="1.07387">
        <ele>139.272</ele>
        <time>1998-03-25T16:06:25Z</time>
      </trkpt>
      <trkpt lat="49.37921" lon="1.07376">
        <ele>138.845</ele>
        <time>1998-03-25T16:06:29Z</time>
      </trkpt>
      <trkpt lat="49.37902" lon="1.07388">
        <ele>138.463</ele>
        <time>1998-03-25T16:06:34Z</time>
      </trkpt>
      <trkpt lat="49.37914" lon="1.07351">
        <ele>139.073</ele>
        <time>1998-03-25T16:07:09Z</time>
      </trkpt>
      <trkpt lat="49.37904" lon="1.07333">
        <ele>138.824</ele>
        <time>1998-03-25T16:07:13Z</time>
      </trkpt>
      <trkpt lat="49.37739" lon="1.0722">
        <ele>144.225</ele>
        <time>1998-03-25T16:07:49Z</time>
      </trkpt>
      <trkpt lat="49.37718" lon="1.0722">
        <ele>144.626</ele>
        <time>1998-03-25T16:07:55Z</time>
      </trkpt>
      <trkpt lat="49.3765" lon="1.07526">
        <ele>138.808</ele>
        <time>1998-03-25T16:09:09Z</time>
      </trkpt>
      <trkpt lat="49.3745" lon="1.08104">
        <ele>137.208</ele>
        <time>1998-03-25T16:11:08Z</time>
      </trkpt>
      <trkpt lat="49.3558" lon="1.06754">
        <ele>157.824</ele>
        <time>1998-03-25T16:19:05Z</time>
      </trkpt>
      <trkpt lat="49.35348" lon="1.07463">
        <ele>143.415</ele>
        <time>1998-03-25T16:20:45Z</time>
      </trkpt>
      <trkpt lat="49.35362" lon="1.07512">
        <ele>142.626</ele>
        <time>1998-03-25T16:20:55Z</time>
      </trkpt>
      <trkpt lat="49.35356" lon="1.07584">
        <ele>141.257</ele>
        <time>1998-03-25T16:21:09Z</time>
      </trkpt>
      <trkpt lat="49.35388" lon="1.07634">
        <ele>139.29</ele>
        <time>1998-03-25T16:22:13Z</time>
      </trkpt>
      <trkpt lat="49.35279" lon="1.07982">
        <ele>128.068</ele>
        <time>1998-03-25T16:23:01Z</time>
      </trkpt>
      <trkpt lat="49.35311" lon="1.0803">
        <ele>126.018</ele>
        <time>1998-03-25T16:23:23Z</time>
      </trkpt>
      <trkpt lat="49.35319" lon="1.0807">
        <ele>124.679</ele>
        <time>1998-03-25T16:23:32Z</time>
      </trkpt>
      <trkpt lat="49.35294" lon="1.08169">
        <ele>127.028</ele>
        <time>1998-03-25T16:24:34Z</time>
      </trkpt>
      <trkpt lat="49.35236" lon="1.08219">
        <ele>120.289</ele>
        <time>1998-03-25T16:24:44Z</time>
      </trkpt>
      <trkpt lat="49.35102" lon="1.08388">
        <ele>117.417</ele>
        <time>1998-03-25T16:25:19Z</time>
      </trkpt>
      <trkpt lat="49.35004" lon="1.08616">
        <ele>103.408</ele>
        <time>1998-03-25T16:25:39Z</time>
      </trkpt>
      <trkpt lat="49.34773" lon="1.09065">
        <ele>92.634</ele>
        <time>1998-03-25T16:26:32Z</time>
      </trkpt>
      <trkpt lat="49.34701" lon="1.09179">
        <ele>91.215</ele>
        <time>1998-03-25T16:26:47Z</time>
      </trkpt>
      <trkpt lat="49.34535" lon="1.09319">
        <ele>89.046</ele>
        <time>1998-03-25T16:28:37Z</time>
      </trkpt>
      <trkpt lat="49.34505" lon="1.09441">
        <ele>86.687</ele>
        <time>1998-03-25T16:28:57Z</time>
      </trkpt>
      <trkpt lat="49.34482" lon="1.09484">
        <ele>85.23</ele>
        <time>1998-03-25T16:29:03Z</time>
      </trkpt>
      <trkpt lat="49.34337" lon="1.09573">
        <ele>83.268</ele>
        <time>1998-03-25T16:29:27Z</time>
      </trkpt>
      <trkpt lat="49.34209" lon="1.09621">
        <ele>81.298</ele>
        <time>1998-03-25T16:29:49Z</time>
      </trkpt>
      <trkpt lat="49.34157" lon="1.09614">
        <ele>80.449</ele>
        <time>1998-03-25T16:29:58Z</time>
      </trkpt>
      <trkpt lat="49.3409" lon="1.09549">
        <ele>80.015</ele>
        <time>1998-03-25T16:30:21Z</time>
      </trkpt>
      <trkpt lat="49.34218" lon="1.09917">
        <ele>81.065</ele>
        <time>1998-03-25T16:31:21Z</time>
      </trkpt>
      <trkpt lat="49.34238" lon="1.10015">
        <ele>82.011</ele>
        <time>1998-03-25T16:31:38Z</time>
      </trkpt>
      <trkpt lat="49.34048" lon="1.10159">
        <ele>81.808</ele>
        <time>1998-03-25T16:32:19Z</time>
      </trkpt>
      <trkpt lat="49.33947" lon="1.10188">
        <ele>87.253</ele>
        <time>1998-03-25T16:32:51Z</time>
      </trkpt>
      <trkpt lat="49.33687" lon="1.10216">
        <ele>85.824</ele>
        <time>1998-03-25T16:33:41Z</time>
      </trkpt>
      <trkpt lat="49.3362" lon="1.10202">
        <ele>84.415</ele>
        <time>1998-03-25T16:33:51Z</time>
      </trkpt>
      <trkpt lat="49.33364" lon="1.10033">
        <ele>86.826</ele>
        <time>1998-03-25T16:34:38Z</time>
      </trkpt>
      <trkpt lat="49.3332" lon="1.10025">
        <ele>85.469</ele>
        <time>1998-03-25T16:34:44Z</time>
      </trkpt>
      <trkpt lat="49.33234" lon="1.10045">
        <ele>80.267</ele>
        <time>1998-03-25T16:34:55Z</time>
      </trkpt>
      <trkpt lat="49.33189" lon="1.10008">
        <ele>79.097</ele>
        <time>1998-03-25T16:35:02Z</time>
      </trkpt>
      <trkpt lat="49.33152" lon="1.10061">
        <ele>79.458</ele>
        <time>1998-03-25T16:35:10Z</time>
      </trkpt>
      <trkpt lat="49.33115" lon="1.10087">
        <ele>79.472</ele>
        <time>1998-03-25T16:35:16Z</time>
      </trkpt>
      <trkpt lat="49.32917" lon="1.10169">
        <ele>80.213</ele>
        <time>1998-03-25T16:35:49Z</time>
      </trkpt>
      <trkpt lat="49.32879" lon="1.10228">
        <ele>80.214</ele>
        <time>1998-03-25T16:36:12Z</time>
      </trkpt>
      <trkpt lat="49.32853" lon="1.10376">
        <ele>78.808</ele>
        <time>1998-03-25T16:36:37Z</time>
      </trkpt>
      <trkpt lat="49.32832" lon="1.10418">
        <ele>79.429</ele>
        <time>1998-03-25T16:36:46Z</time>
      </trkpt>
      <trkpt lat="49.32812" lon="1.10424">
        <ele>79.22</ele>
        <time>1998-03-25T16:36:50Z</time>
      </trkpt>
    </trkseg>
  </trk>
</gpx>